Winnemucca, NV

4:51 PM PDT on August 28, 2016 (GMT -0700)
Winnemucca Municipal

Weather History for KWMC - April, 2013

Change the Weather History Date:

Friday, April 19, 2013

  Actual Average Record
Temperature  
Mean Temperature 44 °F 47 °F  
Max Temperature 66 °F 63 °F 85 °F (1934)
Min Temperature 21 °F 31 °F 16 °F (1966)
Degree Days  
Heating Degree Days 21 18  
Month to date heating degree days 391 375  
Since 1 July heating degree days 5867 5703  
Cooling Degree Days 0 0  
Month to date cooling degree days 0 0  
Year to date cooling degree days 0 0  
Moisture  
Dew Point 23 °F    
Average Humidity 46    
Maximum Humidity 68    
Minimum Humidity 23    
Precipitation  
Precipitation T in 0.03 in 0.37 in (1896)
Month to date precipitation 0.55 0.55  
Year to date precipitation 1.34 2.91  
Snow  
Snow 0.00 in 0.10 in 4.00 in (1896)
Month to date snowfall T 1.2  
Since 1 July snowfall 21.9 20.4  
Snow Depth 0.00 in    
Sea Level Pressure  
Sea Level Pressure 30.16 in    
Wind  
Wind Speed 9 mph (WSW)    
Max Wind Speed 30 mph    
Max Gust Speed 38 mph    
Visibility 10 miles    
Events Rain    
T = Trace of Precipitation, MM = Missing Value Source: NWS Daily Summary

Daily Weather History Graph

Daily Weather History Graph

Search for Another Location

Airport or City:

Trip Planner

Search our weather history database for the weather conditions in past years. The results will help you decide how hot, cold, wet, or windy it might be!

Date:

Astronomy

Apr. 19, 2013 Rise Set
Actual Time 6:05 AM PDT 7:35 PM PDT
Civil Twilight 5:36 AM PDT 8:04 PM PDT
Nautical Twilight 5:02 AM PDT 8:39 PM PDT
Astronomical Twilight 4:25 AM PDT 9:16 PM PDT
Moon 1:22 PM PDT (4/19) 2:26 AM PDT (4/19)
Length of Visible Light 14h 27m
Length of Day
13h 29m
Waxing Gibbous, 62% of the Moon is Illuminated
Apr 19
Waxing Gibbous
Apr 25
Full
May 2
Last Quarter
May 9
New
May 17
First Quarter

Hourly Weather History & Observations

Time (PDT) Temp. Windchill Dew Point Humidity Pressure Visibility Wind Dir Wind Speed Gust Speed Precip Events Conditions
12:56 AM 33.1 °F - 16.0 °F 50% 30.30 in 10.0 mi Calm Calm - N/A   Clear
1:56 AM 27.0 °F 21.6 °F 14.0 °F 58% 30.30 in 10.0 mi South 4.6 mph - N/A   Clear
2:56 AM 26.1 °F 21.9 °F 14.0 °F 60% 30.28 in 10.0 mi WSW 3.5 mph - N/A   Clear
3:56 AM 25.0 °F 20.7 °F 14.0 °F 63% 30.28 in 10.0 mi South 3.5 mph - N/A   Scattered Clouds
4:56 AM 27.0 °F - 14.0 °F 58% 30.25 in 10.0 mi Calm Calm - N/A   Clear
5:56 AM 21.0 °F - 12.0 °F 68% 30.27 in 10.0 mi Calm Calm - N/A   Clear
6:56 AM 26.1 °F - 15.1 °F 63% 30.27 in 10.0 mi Calm Calm - N/A   Clear
7:56 AM 39.0 °F 36.8 °F 19.0 °F 45% 30.25 in 10.0 mi ESE 3.5 mph - N/A   Clear
8:56 AM 52.0 °F - 18.0 °F 26% 30.22 in 10.0 mi South 11.5 mph - N/A   Clear
9:56 AM 55.0 °F - 19.9 °F 25% 30.19 in 10.0 mi South 6.9 mph - N/A   Clear
10:56 AM 60.1 °F - 24.1 °F 25% 30.17 in 10.0 mi WSW 16.1 mph 21.9 mph N/A   Scattered Clouds
11:56 AM 60.1 °F - 24.1 °F 25% 30.15 in 10.0 mi SSW 16.1 mph 21.9 mph N/A   Overcast
12:56 PM 63.0 °F - 25.0 °F 24% 30.12 in 10.0 mi West 19.6 mph 26.5 mph N/A   Mostly Cloudy
1:56 PM 61.0 °F - 28.0 °F 29% 30.10 in 10.0 mi West 18.4 mph 26.5 mph N/A   Overcast
2:56 PM 62.1 °F - 28.9 °F 29% 30.07 in 10.0 mi West 18.4 mph 27.6 mph N/A   Overcast
3:56 PM 64.9 °F - 30.9 °F 28% 30.04 in 10.0 mi WNW 16.1 mph 27.6 mph N/A   Mostly Cloudy
4:56 PM 63.0 °F - 28.9 °F 28% 30.03 in 10.0 mi West 23.0 mph 32.2 mph N/A   Partly Cloudy
5:56 PM 59.0 °F - 28.9 °F 32% 30.08 in 10.0 mi WNW 20.7 mph 36.8 mph 0.00 in Rain Light Rain
6:56 PM 54.0 °F - 35.1 °F 49% 30.08 in 10.0 mi NNW 12.7 mph - 0.00 in   Clear
7:56 PM 51.1 °F - 28.9 °F 43% 30.08 in 10.0 mi NNW 3.5 mph - N/A   Partly Cloudy
8:56 PM 48.0 °F - 28.9 °F 48% 30.09 in 10.0 mi Variable 3.5 mph - N/A   Mostly Cloudy
9:56 PM 48.9 °F - 28.0 °F 44% 30.09 in 10.0 mi NNW 9.2 mph - N/A   Mostly Cloudy
10:56 PM 46.0 °F 41.9 °F 30.0 °F 54% 30.09 in 10.0 mi North 8.1 mph - N/A   Clear
11:56 PM 39.9 °F - 28.9 °F 65% 30.13 in 10.0 mi Calm Calm - N/A   Clear